| time (UTC) | temp F | wind direction | speed MPH | gust MPH | rain 1hr in | rain 24hr in | rain mn in | humidity % | barometer mb |
| 20260831224519 | 81 | 0.0 | 2.0 | 0.00 | 0.02 | 0.02 | 18 | 1016.5 | |
| 20260831223519 | 81 | 225 | 1.0 | 4.0 | 0.00 | 0.02 | 0.02 | 24 | 1016.4 |
| 20260831222943 | 81 | 225 | 2.0 | 5.0 | 0.00 | 0.02 | 0.02 | 27 | 1016.5 |
| 20260831221520 | 81 | 0.0 | 2.0 | 0.00 | 0.02 | 0.02 | 17 | 1016.6 | |
| 20260831220519 | 80 | 225 | 2.0 | 4.0 | 0.00 | 0.02 | 0.02 | 18 | 1016.6 |
| 20260831215519 | 80 | 225 | 2.0 | 5.0 | 0.00 | 0.02 | 0.02 | 7 | 1016.6 |
| 20260831214734 | 79 | 225 | 2.0 | 3.0 | 0.00 | 0.02 | 0.02 | 1 | 1016.7 |
| 20260831213520 | 79 | 225 | 1.0 | 3.0 | 0.00 | 0.02 | 0.02 | 5 | 1016.9 |
| 20260831212730 | 79 | 225 | 1.0 | 3.0 | 0.00 | 0.02 | 0.02 | 100 | 1016.9 |
| 20260831211519 | 79 | 225 | 1.0 | 3.0 | 0.00 | 0.02 | 0.02 | 3 | 1017.0 |
| 20260831210945 | 79 | 225 | 2.0 | 4.0 | 0.00 | 0.02 | 0.02 | 2 | 1017.1 |
| 20260831205519 | 79 | 0.0 | 2.0 | 0.00 | 0.02 | 0.02 | 6 | 1017.1 | |
| 20260831204519 | 79 | 0.0 | 2.0 | 0.00 | 0.02 | 0.02 | 19 | 1017.3 | |
| 20260831203520 | 80 | 225 | 1.0 | 3.0 | 0.00 | 0.02 | 0.02 | 24 | 1017.3 |
| 20260831202519 | 80 | 225 | 1.0 | 3.0 | 0.00 | 0.02 | 0.02 | 24 | 1017.3 |
| 20260831201520 | 80 | 225 | 1.0 | 3.0 | 0.00 | 0.02 | 0.02 | 26 | 1017.5 |
| 20260831200519 | 80 | 225 | 1.0 | 3.0 | 0.00 | 0.02 | 0.02 | 31 | 1017.5 |
| 20260831195519 | 80 | 0.0 | 1.0 | 0.00 | 0.02 | 0.02 | 26 | 1017.5 | |
| 20260831195156 | 79 | 225 | 1.0 | 4.0 | 0.00 | 0.02 | 0.02 | 33 | 1017.5 |
| 20260831193519 | 79 | 225 | 4.0 | 9.0 | 0.00 | 0.02 | 0.02 | 35 | 1017.6 |
| 20260831192519 | 79 | 248 | 2.0 | 5.0 | 0.00 | 0.02 | 0.02 | 23 | 1017.6 |
| 20260831191519 | 79 | 270 | 2.0 | 6.0 | 0.00 | 0.02 | 0.02 | 32 | 1017.7 |
| 20260831190520 | 79 | 270 | 1.0 | 4.0 | 0.00 | 0.02 | 0.02 | 29 | 1018.0 |
| 20260831185519 | 80 | 270 | 1.0 | 3.0 | 0.00 | 0.02 | 0.02 | 39 | 1018.2 |
| 20260831184730 | 79 | 270 | 2.0 | 4.0 | 0.00 | 0.02 | 0.02 | 25 | 1018.2 |
| 20260831183519 | 79 | 270 | 2.0 | 5.0 | 0.00 | 0.02 | 0.02 | 37 | 1018.2 |
| 20260831182520 | 79 | 270 | 2.0 | 4.0 | 0.00 | 0.02 | 0.02 | 24 | 1018.2 |
| 20260831181519 | 78 | 270 | 2.0 | 4.0 | 0.00 | 0.02 | 0.02 | 29 | 1018.3 |
| 20260831180519 | 78 | 270 | 2.0 | 3.0 | 0.00 | 0.02 | 0.02 | 24 | 1018.3 |
| 20260831175520 | 78 | 0.0 | 1.0 | 0.00 | 0.02 | 0.02 | 24 | 1018.5 | |
| 20260831174520 | 78 | 270 | 1.0 | 4.0 | 0.00 | 0.02 | 0.02 | 32 | 1018.6 |
| 20260831173519 | 78 | 270 | 1.0 | 3.0 | 0.00 | 0.02 | 0.02 | 38 | 1018.6 |
| 20260831172520 | 78 | 270 | 2.0 | 5.0 | 0.00 | 0.02 | 0.02 | 38 | 1018.5 |
| 20260831171520 | 78 | 270 | 1.0 | 3.0 | 0.00 | 0.02 | 0.02 | 32 | 1018.7 |
| 20260831170729 | 78 | 270 | 1.0 | 2.0 | 0.00 | 0.02 | 0.02 | 25 | 1018.7 |
| 20260831165520 | 78 | 270 | 2.0 | 4.0 | 0.00 | 0.02 | 0.02 | 5 | 1018.7 |
| 20260831164520 | 77 | 270 | 1.0 | 3.0 | 0.00 | 0.02 | 0.02 | 100 | 1018.7 |
| 20260831163520 | 77 | 270 | 2.0 | 4.0 | 0.00 | 0.02 | 0.02 | 15 | 1018.7 |
| 20260831162520 | 78 | 0.0 | 1.0 | 0.00 | 0.02 | 0.02 | 11 | 1018.9 | |
| 20260831161729 | 78 | 293 | 3.0 | 8.0 | 0.00 | 0.02 | 0.02 | 100 | 1018.8 |
| 20260831161156 | 77 | 293 | 2.0 | 5.0 | 0.00 | 0.02 | 0.02 | 100 | 1018.9 |
| 20260831155731 | 76 | 293 | 3.0 | 6.0 | 0.00 | 0.02 | 0.02 | 100 | 1018.9 |
| 20260831154520 | 76 | 293 | 3.0 | 5.0 | 0.00 | 0.02 | 0.02 | 100 | 1019.0 |
| 20260831153520 | 76 | 293 | 2.0 | 4.0 | 0.00 | 0.02 | 0.02 | 100 | 1019.0 |
| 20260831152519 | 75 | 293 | 2.0 | 4.0 | 0.00 | 0.02 | 0.02 | 100 | 1018.9 |
| 20260831151520 | 75 | 293 | 3.0 | 6.0 | 0.00 | 0.02 | 0.02 | 100 | 1019.0 |
| 20260831150731 | 73 | 293 | 1.0 | 3.0 | 0.00 | 0.02 | 0.02 | 100 | 1019.0 |
| 20260831145520 | 71 | 293 | 1.0 | 5.0 | 0.00 | 0.02 | 0.02 | 100 | 1018.8 |
| 20260831144520 | 71 | 293 | 1.0 | 4.0 | 0.01 | 0.02 | 0.02 | 100 | 1018.7 |
| 20260831143519 | 71 | 293 | 1.0 | 3.0 | 0.02 | 0.02 | 0.02 | 100 | 1018.9 |
| 20260831142520 | 71 | 293 | 1.0 | 2.0 | 0.02 | 0.02 | 0.02 | 100 | 1019.1 |
| 20260831141731 | 71 | 0.0 | 2.0 | 0.02 | 0.02 | 0.02 | 100 | 1019.2 | |
| 20260831140520 | 71 | 0.0 | 2.0 | 0.02 | 0.02 | 0.02 | 100 | 1019.2 | |
| 20260831135733 | 71 | 0.0 | 0.0 | 0.02 | 0.02 | 0.02 | 100 | 1019.4 | |
| 20260831134520 | 70 | 0.0 | 0.0 | 0.01 | 0.01 | 0.01 | 100 | 1019.5 | |
| 20260831133532 | 70 | 0.0 | 0.0 | 0.00 | 0.00 | 0.00 | 100 | 1019.3 | |
| 20260831132730 | 70 | 0.0 | 2.0 | 0.00 | 0.00 | 0.00 | 100 | 1019.3 | |
| 20260831131520 | 70 | 0.0 | 2.0 | 0.00 | 0.00 | 0.00 | 100 | 1019.4 | |
| 20260831130520 | 69 | 293 | 1.0 | 3.0 | 0.00 | 0.00 | 0.00 | 100 | 1019.3 |
| 20260831125520 | 68 | 0.0 | 0.0 | 0.00 | 0.00 | 0.00 | 100 | 1019.2 | |
| 20260831124520 | 68 | 0.0 | 0.0 | 0.00 | 0.00 | 0.00 | 100 | 1019.2 | |
| 20260831123730 | 68 | 0.0 | 0.0 | 0.00 | 0.00 | 0.00 | 100 | 1019.1 | |
| 20260831122731 | 67 | 0.0 | 0.0 | 0.00 | 0.00 | 0.00 | 100 | 1019.0 | |
| 20260831121520 | 67 | 0.0 | 0.0 | 0.00 | 0.00 | 0.00 | 100 | 1018.9 | |
| 20260831120733 | 67 | 0.0 | 0.0 | 0.00 | 0.00 | 0.00 | 100 | 1019.0 | |
| 20260831115942 | 66 | 0.0 | 0.0 | 0.00 | 0.00 | 0.00 | 100 | 1018.9 | |
| 20260831114729 | 66 | 0.0 | 0.0 | 0.00 | 0.00 | 0.00 | 100 | 1018.8 | |
| 20260831113519 | 66 | 0.0 | 0.0 | 0.00 | 0.00 | 0.00 | 100 | 1018.9 | |
| 20260831112732 | 66 | 0.0 | 0.0 | 0.00 | 0.00 | 0.00 | 100 | 1018.8 | |
| 20260831111520 | 66 | 0.0 | 0.0 | 0.00 | 0.00 | 0.00 | 100 | 1018.9 | |
| 20260831110520 | 66 | 0.0 | 0.0 | 0.00 | 0.00 | 0.00 | 100 | 1018.8 | |
| 20260831105520 | 66 | 0.0 | 0.0 | 0.00 | 0.00 | 0.00 | 100 | 1018.6 | |
| 20260831104520 | 66 | 0.0 | 0.0 | 0.00 | 0.00 | 0.00 | 100 | 1018.3 | |
| 20260831103519 | 66 | 0.0 | 0.0 | 0.00 | 0.00 | 0.00 | 100 | 1018.2 | |
| 20260831102520 | 65 | 0.0 | 0.0 | 0.00 | 0.00 | 0.00 | 100 | 1018.3 | |
| 20260831101946 | 65 | 0.0 | 0.0 | 0.00 | 0.00 | 0.00 | 100 | 1018.1 | |
| 20260831100947 | 66 | 0.0 | 0.0 | 0.00 | 0.00 | 0.00 | 100 | 1018.1 | |
| 20260831095520 | 65 | 0.0 | 0.0 | 0.00 | 0.00 | 0.00 | 100 | 1018.3 | |
| 20260831094520 | 65 | 0.0 | 0.0 | 0.00 | 0.00 | 0.00 | 100 | 1018.3 | |
| 20260831093520 | 65 | 0.0 | 0.0 | 0.00 | 0.00 | 0.00 | 100 | 1018.3 | |
| 20260831092520 | 65 | 0.0 | 0.0 | 0.00 | 0.00 | 0.00 | 100 | 1018.2 | |
| 20260831091520 | 65 | 0.0 | 0.0 | 0.00 | 0.00 | 0.00 | 100 | 1018.1 | |
| 20260831090520 | 65 | 0.0 | 0.0 | 0.00 | 0.00 | 0.00 | 100 | 1018.0 | |
| 20260831085944 | 65 | 0.0 | 0.0 | 0.00 | 0.00 | 0.00 | 100 | 1018.0 | |
| 20260831084520 | 65 | 0.0 | 0.0 | 0.00 | 0.00 | 0.00 | 100 | 1018.0 | |
| 20260831083520 | 65 | 0.0 | 0.0 | 0.00 | 0.00 | 0.00 | 100 | 1017.8 | |
| 20260831082520 | 65 | 0.0 | 0.0 | 0.00 | 0.00 | 0.00 | 100 | 1017.8 | |
| 20260831081520 | 66 | 0.0 | 0.0 | 0.00 | 0.00 | 0.00 | 100 | 1017.8 | |
| 20260831080520 | 66 | 0.0 | 0.0 | 0.00 | 0.00 | 0.00 | 100 | 1017.7 | |
| 20260831075520 | 66 | 0.0 | 0.0 | 0.00 | 0.00 | 0.00 | 100 | 1017.7 | |
| 20260831074520 | 66 | 0.0 | 0.0 | 0.00 | 0.00 | 0.00 | 100 | 1017.7 | |
| 20260831073733 | 66 | 0.0 | 0.0 | 0.00 | 0.00 | 0.00 | 100 | 1017.8 | |
| 20260831072520 | 66 | 0.0 | 0.0 | 0.00 | 0.00 | 0.00 | 100 | 1017.8 | |
| 20260831071520 | 66 | 0.0 | 0.0 | 0.00 | 0.00 | 0.00 | 100 | 1017.9 | |
| 20260831070731 | 67 | 0.0 | 0.0 | 0.00 | 0.00 | 0.00 | 100 | 1017.9 | |
| 20260831065520 | 67 | 0.0 | 0.0 | 0.00 | 0.00 | 0.00 | 100 | 1018.1 | |
| 20260831064520 | 67 | 0.0 | 0.0 | 0.00 | 0.00 | 0.00 | 100 | 1018.0 | |
| 20260831063520 | 67 | 0.0 | 0.0 | 0.00 | 0.00 | 0.00 | 100 | 1018.0 | |
| 20260831062520 | 68 | 0.0 | 0.0 | 0.00 | 0.00 | 0.00 | 100 | 1018.0 | |
| 20260831061520 | 68 | 0.0 | 0.0 | 0.00 | 0.00 | 0.00 | 100 | 1018.1 | |
| 20260831060520 | 68 | 0.0 | 1.0 | 0.00 | 0.00 | 0.00 | 100 | 1018.3 | |
| 20260831055520 | 68 | 0.0 | 0.0 | 0.00 | 0.00 | 0.00 | 100 | 1018.3 | |
| 20260831054734 | 68 | 0.0 | 1.0 | 0.00 | 0.00 | 0.00 | 100 | 1018.5 | |
| 20260831053520 | 68 | 0.0 | 0.0 | 0.00 | 0.00 | 0.00 | 100 | 1018.4 | |
| 20260831052520 | 68 | 0.0 | 0.0 | 0.00 | 0.00 | 0.00 | 100 | 1018.5 | |
| 20260831051519 | 68 | 0.0 | 0.0 | 0.00 | 0.00 | 0.00 | 100 | 1018.4 | |
| 20260831050520 | 68 | 293 | 1.0 | 3.0 | 0.00 | 0.00 | 0.00 | 100 | 1018.7 |
| 20260831045733 | 68 | 0.0 | 4.0 | 0.00 | 0.00 | 0.00 | 100 | 1018.6 | |
| 20260831044520 | 68 | 0.0 | 2.0 | 0.00 | 0.00 | 0.00 | 100 | 1018.7 | |
| 20260831043520 | 68 | 293 | 2.0 | 3.0 | 0.00 | 0.00 | 0.00 | 100 | 1018.5 |
| 20260831042520 | 68 | 0.0 | 1.0 | 0.00 | 0.00 | 0.00 | 100 | 1018.3 | |
| 20260831041520 | 68 | 0.0 | 0.0 | 0.00 | 0.00 | 0.00 | 100 | 1018.5 | |
| 20260831040520 | 68 | 0.0 | 0.0 | 0.00 | 0.00 | 0.00 | 100 | 1018.4 | |
| 20260831035519 | 68 | 0.0 | 0.0 | 0.00 | 0.00 | 0.00 | 100 | 1018.5 | |
| 20260831034730 | 68 | 0.0 | 0.0 | 0.00 | 0.00 | 0.00 | 100 | 1018.5 | |
| 20260831033519 | 68 | 0.0 | 0.0 | 0.00 | 0.00 | 0.00 | 100 | 1018.7 | |
| 20260831032519 | 68 | 0.0 | 2.0 | 0.00 | 0.00 | 0.00 | 100 | 1018.8 | |
| 20260831031519 | 68 | 0.0 | 0.0 | 0.00 | 0.00 | 0.00 | 100 | 1018.8 | |
| 20260831030519 | 68 | 0.0 | 0.0 | 0.00 | 0.00 | 0.00 | 100 | 1018.8 | |
| 20260831025520 | 68 | 0.0 | 0.0 | 0.00 | 0.00 | 0.00 | 100 | 1018.9 | |
| 20260831024730 | 68 | 0.0 | 0.0 | 0.00 | 0.00 | 0.00 | 100 | 1018.8 | |
| 20260831023519 | 69 | 0.0 | 0.0 | 0.00 | 0.00 | 0.00 | 100 | 1018.8 | |
| 20260831022519 | 69 | 0.0 | 0.0 | 0.00 | 0.00 | 0.00 | 100 | 1018.9 | |
| 20260831021520 | 69 | 0.0 | 0.0 | 0.00 | 0.00 | 0.00 | 100 | 1018.8 | |
| 20260831020729 | 69 | 0.0 | 0.0 | 0.00 | 0.00 | 0.00 | 100 | 1018.9 | |
| 20260831015730 | 70 | 0.0 | 0.0 | 0.00 | 0.00 | 0.00 | 100 | 1018.8 | |
| 20260831014520 | 70 | 0.0 | 0.0 | 0.00 | 0.00 | 0.00 | 100 | 1018.7 | |
| 20260831013520 | 71 | 0.0 | 0.0 | 0.00 | 0.00 | 0.00 | 100 | 1018.7 | |
| 20260831012733 | 72 | 0.0 | 0.0 | 0.00 | 0.00 | 0.00 | 100 | 1018.5 | |
| 20260831011520 | 72 | 0.0 | 0.0 | 0.00 | 0.00 | 0.00 | 100 | 1018.3 | |
| 20260831010520 | 73 | 0.0 | 0.0 | 0.00 | 0.00 | 0.00 | 100 | 1018.3 | |
| 20260831005520 | 73 | 0.0 | 0.0 | 0.00 | 0.00 | 0.00 | 100 | 1018.1 | |
| 20260831004519 | 73 | 0.0 | 0.0 | 0.00 | 0.00 | 0.00 | 100 | 1017.9 | |
| 20260831003520 | 74 | 0.0 | 0.0 | 0.00 | 0.00 | 0.00 | 100 | 1017.6 | |
| 20260831002520 | 74 | 0.0 | 0.0 | 0.00 | 0.00 | 0.00 | 100 | 1017.3 | |
| 20260831001519 | 75 | 0.0 | 0.0 | 0.00 | 0.00 | 0.00 | 100 | 1017.0 | |
| 20260831000520 | 75 | 0.0 | 0.0 | 0.00 | 0.00 | 0.00 | 100 | 1016.9 | |
| 20260830235519 | 75 | 0.0 | 0.0 | 0.00 | 0.00 | 0.00 | 100 | 1016.8 | |
| 20260830234520 | 76 | 0.0 | 0.0 | 0.00 | 0.00 | 0.00 | 100 | 1016.9 | |
| 20260830233733 | 76 | 0.0 | 0.0 | 0.00 | 0.00 | 0.00 | 100 | 1017.0 | |
| 20260830232520 | 77 | 0.0 | 0.0 | 0.00 | 0.00 | 0.00 | 1 | 1017.0 | |
| 20260830231520 | 77 | 0.0 | 0.0 | 0.00 | 0.00 | 0.00 | 1 | 1017.1 | |
| 20260830230520 | 77 | 0.0 | 0.0 | 0.00 | 0.00 | 0.00 | 11 | 1017.0 |